Weather observations for the past three days for
Waterloo, Waterloo Municipal Airport
Imperial (Metric)
Date Time (cdt) Wind (mph) Vis. (mi.) Weather Sky Cond. Temperature (ºF) Relative Humidity Wind Chill (°F) Heat Index (°F) Pressure Precipitation (in)
Air Dwpt 6 hour altimeter (in) sea level (mb) 1 hr 3 hr 6 hr
Max. Min.
18 17:54 S 21 G 32 10.00 Overcast and Breezy BKN060 OVC080 89.1 70 53% 94 29.78 1007.7
18 16:54 S 17 G 29 10.00 Overcast OVC060 89.1 71.1 55% 95 29.78 1007.7
18 15:54 S 20 G 30 10.00 Overcast BKN050 OVC060 88 71.1 57% 94 29.8 1008.1
18 14:54 S 20 G 28 10.00 Overcast OVC048 89.1 71.1 55% 95 29.79 1008.0
18 13:54 S 17 G 32 10.00 Mostly Cloudy SCT041 BKN050 BKN055 89.1 72 57% 96 29.81 1008.6
18 12:54 S 18 G 31 10.00 Overcast SCT040 SCT048 OVC060 86 71.1 88 77 61% 92 29.81 1008.6
18 11:54 S 26 G 38 10.00 Mostly Cloudy and Windy BKN036 87.1 71.1 59% 93 29.78 1007.7
18 10:54 S 26 G 35 10.00 A Few Clouds and Windy FEW032 84.9 71.1 63% 90 29.79 1007.8
18 09:54 S 22 G 31 10.00 Partly Cloudy and Breezy SCT026 84 71.1 65% 89 29.8 1008.1
18 08:54 S 22 G 31 10.00 Partly Cloudy and Breezy SCT020 82 71.1 69% 86 29.81 1008.5
18 07:54 S 24 G 32 10.00 Mostly Cloudy and Breezy BKN018 79 71.1 77% 82 29.81 1008.4
18 06:54 S 20 G 28 10.00 Partly Cloudy SCT017 77 71.1 80.1 77 82% 79 29.8 1008.3
18 05:54 S 15 10.00 Fair CLR 77 71.1 82% 79 29.78 1007.6
18 04:54 S 17 G 23 10.00 Fair CLR 77 71.1 82% 79 29.76 1006.9
18 03:54 S 18 G 26 10.00 Fair CLR 78.1 71.1 79% 80 29.74 1006.3
18 02:54 S 15 10.00 Fair CLR 79 70 74% 82 29.77 1007.2
18 01:54 S 14 10.00 Fair CLR 80.1 70 71% 83 29.78 1007.6
18 00:54 SE 10 10.00 Fair CLR 80.1 68 90 80.1 67% 83 29.79 1008.0
17 23:54 S 12 10.00 Fair CLR 81 66.9 62% 83 29.8 1008.2
17 22:54 S 12 10.00 Fair CLR 82.9 64.9 55% 85 29.78 1007.8
17 21:54 S 10 10.00 Fair CLR 84 64.9 53% 86 29.77 1007.2
17 20:54 Calm 10.00 Fair CLR 86 66 51% 88 29.75 1006.5
17 19:54 S 10 10.00 Fair CLR 88 64.9 46% 90 29.76 1006.8
17 18:54 S 9 10.00 Partly Cloudy SCT065 90 64.9 93 82.9 44% 92 29.78 1007.5
17 17:54 S 15 10.00 A Few Clouds FEW065 91.9 66 43% 95 29.76 1006.9
17 16:54 S 16 G 26 10.00 Mostly Cloudy SCT055 SCT070 BKN085 93 69.1 46% 98 29.76 1006.7
17 15:54 S 16 G 26 10.00 Fair CLR 93 66.9 42% 97 29.76 1006.8
17 14:54 Calm 10.00 Fair CLR 91 72 54% 99 29.78 1007.5
17 13:54 S 7 10.00 Fair CLR 84.9 71.1 63% 90 29.81 1008.6
17 12:54 S 5 10.00 Fair CLR 82.9 70 82.9 77 65% 87 29.84 1009.6 0.09
17 11:54 Calm 10.00 Overcast OVC040 81 70 69% 84 29.86 1010.3
17 10:54 SW 10 10.00 Overcast OVC036 81 71.1 72% 85 29.84 1009.6
17 09:54 SW 9 10.00 Thunderstorm OVC041 78.1 71.1 79% 80 29.83 1009.5 0.09 0.09
17 08:54 S 10 10.00 Overcast OVC043 80.1 69.1 69% 83 29.83 1009.4
17 07:54 S 13 10.00 Overcast FEW060 OVC095 79 70 74% 82 29.82 1009.0
17 06:54 Calm 10.00 Partly Cloudy SCT100 78.1 69.1 80.1 77 74% 80 29.8 1008.2
17 05:54 S 9 10.00 Mostly Cloudy BKN090 78.1 69.1 74% 80 29.8 1008.2
17 04:54 S 10 10.00 Fair CLR 77 69.1 77% 79 29.77 1007.2
17 03:54 S 7 10.00 Fair CLR 77 69.1 77% 79 29.77 1007.2
17 02:54 S 10 10.00 Mostly Cloudy BKN055 78.1 69.1 74% 80 29.77 1007.3
17 01:54 S 13 10.00 Fair CLR 79 70 74% 82 29.77 1007.2
17 00:54 S 10 10.00 A Few Clouds FEW048 80.1 70 88 79 71% 83 29.79 1007.9
16 23:54 S 12 10.00 Mostly Cloudy BKN060 80.1 70 71% 83 29.8 1008.4
16 22:54 S 10 10.00 Overcast OVC055 82 71.1 69% 86 29.8 1008.1
16 21:54 S 7 10.00 Fair CLR 81 71.1 72% 85 29.78 1007.6
16 20:54 Calm 10.00 Fair CLR 84 71.1 65% 89 29.75 1006.6
16 19:54 S 13 10.00 Fair CLR 87.1 71.1 59% 93 29.73 1006.0
16 18:54 S 15 G 25 10.00 Fair CLR 88 71.1 91 88 57% 94 29.72 1005.7
16 17:54 S 15 10.00 A Few Clouds FEW055 88 71.1 57% 94 29.72 1005.6
16 16:54 Calm 10.00 Partly Cloudy SCT050 89.1 69.1 52% 94 29.72 1005.8
16 15:54 S 17 G 29 10.00 Fair CLR 90 68 48% 94 29.72 1005.7
16 14:54 S 15 G 26 10.00 Fair CLR 90 69.1 50% 95 29.72 1005.6
16 13:54 SW 14 G 25 10.00 Fair CLR 90 71.1 54% 96 29.72 1005.6
16 12:54 S 15 G 22 10.00 Fair CLR 89.1 72 89.1 69.1 57% 96 29.75 1006.4 0.09
16 11:54 S 16 10.00 A Few Clouds FEW070 87.1 72 61% 94 29.76 1006.8
16 10:54 Calm 10.00 A Few Clouds FEW021 82.9 72 70% 88 29.75 1006.7
16 09:54 Calm 10.00 Fair CLR 78.1 69.1 74% 80 29.76 1007.0 0.09
16 08:54 Calm 10.00 Fair CLR 73 68 84% 29.77 1007.3 0.07
16 07:54 Calm 4.00 Light Rain Fog/Mist FEW028 SCT050 OVC090 69.1 66 90% 29.78 1007.8 0.02
16 06:54 Calm 10.00 Thunderstorm in Vicinity FEW012 BKN028 BKN038 69.1 66 77 68 90% 29.8 1008.4 0.58
16 05:51 Calm 10.00 Thunderstorm SCT007 BKN033 BKN045 68 66 93% 29.77 1007.6 0.01
16 04:54 SE 12 10.00 Thunderstorm in Vicinity Light Rain FEW055 FEW075 BKN110 68 66 93% 29.76 1007.0 0.35
16 03:54 S 7 2.00 Thunderstorm Heavy Rain Fog/Mist SCT037 OVC060 68 64.9 90% 29.79 1008.3 0.22 0.22
16 02:54 W 7 10.00 Overcast FEW065 SCT090 OVC110 73 62.1 69% 29.75 1006.9
16 01:54 S 13 10.00 Fair CLR 75.9 60.1 58% 78 29.78 1007.6
16 00:54 S 18 G 30 10.00 A Few Clouds FEW050 77 57.9 82.9 77 52% 79 29.81 1008.6
15 23:54 S 17 G 29 10.00 Mostly Cloudy SCT049 BKN060 78.1 57.9 50% 79 29.79 1008.0
15 22:54 S 20 G 29 10.00 Fair CLR 78.1 59 52% 79 29.79 1008.3
15 21:54 S 16 G 25 10.00 Fair CLR 79 57.9 49% 80 29.82 1009.0
15 20:54 S 16 G 24 10.00 Fair CLR 80.1 55.9 44% 80 29.82 1009.1
15 19:54 S 17 G 35 10.00 A Few Clouds FEW090 82 55.9 41% 82 29.81 0.0
15 18:54 S 18 G 28 10.00 Mostly Cloudy FEW065 BKN085 82.9 54 84.9 77 37% 82 29.85 1010.1
Date Time (cdt) Wind (mph) Vis. (mi.) Weather Sky Cond. Air Dwpt Max. Min. Relative Humidity Wind Chill (°F) Heat Index (°F) altimeter (in) sea level (mb) 1 hr 3 hr 6 hr
6 hour
Temperature (ºF) Pressure Precipitation (in)